RH
19 21 19 20 19 21 20 20 20 19 20 19 20 19 18 19 20 23 26 27 26 23 19 19 18 17 17 19 20 16 16 19 17 18 21 23 21 21 22 20 22 22 23 22 21 23 25 21 20 18 10 13 18 19 17 18 43 53 43 39 45 54 42 33 32 30 29 26 29 29 32 39 36 36 35 38 40 40 42 40 37 36 36 38 37 30 27 29
21 20 19 20 19 20 20 19 20 20 20 19 20 18 18 19 22 25 25 26 25 23 20 20 18 16 16 16 16 15 17 19 17 19 20 19 18 20 21 21 22 21 23 23 25 33 35 32 29 26 15 13 19 18 17 19 29 42 40 33 54 65 37 27 31 26 26 25 29 31 31 33 34 35 34 43 47 44 46 42 37 36 36 34 32 29 27 28
20 19 19 19 19 20 19 20 20 21 21 19 19 17 19 20 23 24 24 25 23 22 22 21 18 15 16 15 16 16 17 19 19 20 19 18 19 19 20 21 21 20 21 19 24 30 33 36 30 28 21 14 22 20 18 23 22 36 38 28 54 61 31 25 29 26 27 27 31 33 31 30 32 32 34 48 52 52 52 45 42 39 37 35 33 31 29 29
19 19 19 19 19 19 19 21 22 22 20 18 18 18 21 23 23 23 24 24 20 20 20 19 19 15 15 14 16 16 18 23 22 19 18 18 20 20 20 20 20 19 16 14 18 23 32 38 28 25 21 20 38 29 16 24 23 30 39 36 43 38 26 26 26 29 32 30 32 33 32 29 30 35 44 50 46 53 53 47 48 40 35 36 34 33 31 32
19 18 18 18 18 19 21 22 22 20 18 18 19 20 23 23 22 22 24 22 17 18 17 17 19 19 17 15 17 18 23 28 22 17 17 19 21 20 19 20 18 13 12 13 15 18 27 33 28 28 24 22 40 33 16 23 25 26 34 37 33 26 24 26 30 33 33 35 36 33 30 29 31 36 46 46 42 55 56 49 47 36 33 35 33 33 34 36
18 18 18 18 19 21 22 22 21 18 18 18 19 23 24 22 21 22 23 22 18 17 16 16 17 21 21 17 16 17 25 26 18 16 17 18 21 20 20 19 14 11 13 15 16 18 22 27 26 30 33 30 30 26 23 25 28 28 29 29 25 26 25 25 31 32 34 39 39 35 29 34 37 33 43 46 46 57 53 45 41 34 33 30 31 34 36 39
18 17 17 18 19 21 22 22 19 17 18 18 21 23 22 21 21 21 21 21 18 15 15 15 16 19 20 19 17 18 26 23 15 17 16 17 21 19 18 17 12 12 17 19 21 23 28 29 25 30 41 38 27 28 32 34 46 44 32 24 20 24 24 25 30 30 36 36 34 36 28 34 37 30 39 44 45 52 47 42 40 37 34 31 36 41 40 40
17 17 18 19 20 22 22 21 19 17 17 18 21 22 21 21 20 20 20 18 17 15 13 14 18 21 19 20 21 21 24 20 14 15 14 16 21 19 16 15 12 12 16 20 23 27 33 34 29 33 38 33 26 34 36 36 53 48 30 27 22 22 24 27 31 30 34 33 32 34 28 34 40 33 35 41 44 46 43 42 42 39 37 37 41 43 41 39
17 17 19 20 21 21 21 21 20 17 16 18 18 19 19 20 19 18 17 15 16 17 15 14 16 20 18 19 23 21 18 16 13 13 14 16 20 17 13 13 12 12 12 16 20 22 28 33 31 31 28 28 26 33 38 35 43 41 35 35 22 18 25 30 30 27 30 33 32 31 29 36 39 34 34 39 42 40 40 39 37 36 36 38 38 39 39 38
17 18 21 22 22 22 21 21 21 19 17 16 16 17 19 19 18 15 15 15 15 16 18 16 13 13 13 15 20 19 15 14 12 12 14 15 19 15 11 14 13 12 12 12 17 21 25 28 30 31 29 32 31 31 37 39 43 43 43 38 26 26 28 27 28 29 30 30 32 32 33 36 33 34 36 39 40 38 38 37 34 33 35 36 37 39 35 34
18 21 24 24 24 24 22 22 21 20 17 16 16 17 19 18 15 14 14 15 14 14 15 16 15 13 10 14 19 18 13 13 12 12 13 14 19 17 14 17 15 14 14 12 15 20 22 22 29 38 35 31 32 32 31 35 42 42 35 28 34 41 29 23 27 29 28 26 32 34 34 35 32 35 41 37 35 37 36 35 34 33 36 36 36 36 33 33
21 24 26 25 25 24 22 21 19 19 18 17 17 17 18 16 15 15 14 15 14 14 14 16 18 14 13 17 18 16 13 13 13 11 12 13 18 20 18 18 18 17 16 14 15 16 16 17 25 33 33 33 36 33 26 32 40 40 32 25 37 47 30 20 24 28 28 26 31 34 34 38 38 38 41 37 31 35 34 33 35 35 37 36 34 35 35 35
25 26 25 24 23 21 20 20 19 19 18 17 17 17 18 15 15 15 15 16 14 15 18 18 15 11 19 23 16 13 12 12 13 11 12 12 15 20 19 16 17 17 17 17 16 14 12 13 18 24 33 43 41 29 28 38 36 34 38 40 43 44 32 20 24 32 27 27 32 30 33 37 37 37 38 36 31 32 33 31 35 36 37 36 35 36 36 34
26 24 23 22 21 21 21 20 20 19 18 18 18 18 17 14 15 14 15 15 13 17 17 16 14 10 21 24 12 11 12 12 12 12 13 13 13 15 14 14 16 16 18 18 16 16 13 10 17 28 34 38 37 35 47 55 43 37 44 55 54 39 37 32 31 36 25 28 34 27 34 33 28 36 38 35 31 30 32 32 34 37 37 36 35 35 35 33
25 23 23 21 20 21 21 20 19 18 17 17 16 16 16 14 13 12 14 12 10 15 14 12 12 13 21 19 10 11 11 11 12 12 15 15 14 14 13 13 14 16 16 14 14 17 14 12 18 28 31 31 41 53 55 51 55 57 41 48 59 44 47 46 34 36 26 26 31 26 40 41 31 37 38 35 32 30 31 32 35 37 36 35 34 34 35 34
23 22 20 19 19 19 18 18 17 16 15 14 14 14 14 13 13 13 14 12 10 10 10 10 9 14 21 15 10 11 11 13 12 13 17 16 15 15 14 13 14 15 13 9 10 14 13 17 25 31 34 31 43 67 64 45 56 68 43 37 53 47 51 52 38 38 28 23 29 29 39 40 31 35 37 35 34 32 33 34 34 35 34 34 35 36 37 37
23 21 18 17 18 16 15 16 15 15 14 13 13 13 13 13 13 12 13 14 14 10 10 11 10 15 18 12 11 14 14 13 12 15 17 15 15 16 15 14 16 14 13 10 7 12 14 20 28 31 40 40 39 60 65 48 44 52 50 51 57 55 56 58 50 39 28 27 32 31 36 35 29 33 38 36 34 34 33 33 33 33 34 35 36 38 39 37
21 19 17 17 16 15 15 13 13 14 13 13 13 14 12 9 8 10 11 12 13 14 13 13 13 18 18 12 13 16 16 12 13 17 16 15 14 16 18 17 20 19 20 20 13 18 23 28 35 28 35 44 41 47 44 34 34 35 46 54 57 63 62 61 58 41 29 31 32 31 34 33 27 29 35 36 35 34 33 33 34 35 35 37 38 39 38 35
19 19 16 16 15 14 14 13 13 12 12 13 12 15 13 10 11 9 10 11 13 17 16 19 21 20 17 13 14 15 13 12 14 16 16 17 15 16 19 19 25 32 37 33 21 28 34 35 44 39 38 44 44 54 44 28 33 34 43 54 56 64 66 62 57 45 38 34 30 32 33 32 29 27 32 36 34 33 33 35 36 38 39 39 40 42 38 34
18 17 15 16 14 13 15 15 15 12 12 13 12 19 24 28 30 22 21 25 25 22 17 22 23 17 16 16 15 15 13 12 14 18 18 17 17 16 21 29 32 36 49 43 25 34 45 44 48 42 41 43 41 53 45 31 38 39 45 60 63 63 60 49 40 38 42 38 31 32 35 35 34 33 35 35 33 34 36 39 41 42 42 38 37 40 38 35
17 15 14 15 12 13 13 13 15 12 12 12 13 28 38 40 36 24 28 33 30 25 18 18 18 15 17 14 14 16 15 14 14 18 17 16 21 18 25 45 41 29 48 58 39 37 43 43 44 36 36 44 48 55 43 32 42 41 43 54 53 48 39 29 28 31 37 41 36 32 36 38 37 40 39 35 35 39 41 42 44 43 40 35 30 32 34 33
15 15 15 13 12 15 12 12 14 11 12 11 15 36 45 40 31 24 30 31 24 24 21 19 17 15 16 14 15 17 17 19 18 17 18 19 22 24 35 52 49 40 55 68 55 47 44 34 34 38 42 44 52 63 53 38 42 42 47 54 47 38 34 30 31 33 36 39 36 33 40 43 43 45 43 41 43 43 42 40 39 38 36 32 28 30 30 30
15 15 14 13 14 14 15 15 13 10 10 11 19 34 39 35 30 29 31 27 22 23 23 23 19 17 19 16 16 18 18 20 22 20 19 22 23 36 52 50 49 55 57 55 44 39 35 26 34 48 43 28 31 57 64 50 44 43 44 47 43 38 38 34 30 34 38 39 39 40 46 48 47 49 47 45 44 41 40 38 37 35 34 32 29 30 30 28
15 16 13 14 13 14 19 16 15 18 14 13 23 28 30 30 25 27 33 30 26 24 20 19 19 17 18 18 17 22 21 17 22 21 18 26 28 38 51 46 47 52 53 56 49 40 32 28 46 57 44 29 26 45 56 47 43 47 46 40 36 40 40 37 36 39 40 44 48 44 48 55 52 52 53 48 41 38 37 36 35 34 32 31 27 27 30 28
16 15 13 14 12 15 19 15 19 28 21 16 21 23 24 24 20 26 35 35 30 27 23 17 18 19 16 18 20 22 25 18 18 20 19 27 31 35 43 41 43 43 47 56 51 46 43 40 47 46 46 45 34 32 36 41 45 47 50 43 36 42 43 39 42 47 44 44 49 44 49 59 55 56 58 50 44 40 37 35 33 31 29 29 26 24 27 25
16 15 14 13 11 13 17 20 24 29 29 22 20 23 22 23 23 22 36 51 45 30 24 17 15 19 16 20 26 27 31 25 16 17 22 24 26 33 38 40 44 42 43 49 44 40 42 50 55 46 48 48 34 27 29 40 45 35 39 44 44 46 43 39 41 51 54 45 44 42 43 49 48 56 60 53 52 49 42 37 31 28 27 28 27 24 25 23
15 15 14 13 12 12 15 23 24 25 32 27 21 23 22 25 25 21 37 59 47 22 20 23 16 15 19 22 27 27 25 22 19 20 23 24 24 30 34 40 49 48 50 54 47 40 36 47 59 51 47 43 31 28 29 37 39 32 35 42 48 43 35 40 43 49 54 46 49 48 37 37 39 51 62 58 56 54 48 40 31 29 28 26 27 25 25 24
13 12 12 12 12 10 13 19 19 20 24 21 19 21 24 27 24 33 46 38 25 19 20 25 16 14 25 27 26 29 26 26 27 24 23 22 26 35 36 35 41 50 57 49 38 43 40 36 42 42 41 38 27 25 34 39 36 38 45 45 48 41 35 45 45 49 50 43 55 54 37 38 41 50 65 62 55 53 49 42 35 32 31 30 29 27 26 25
9 9 10 10 9 11 15 16 17 22 21 17 19 21 25 24 24 52 60 25 15 25 22 22 19 22 40 42 38 39 34 31 31 29 28 26 26 36 38 31 37 50 54 40 30 38 40 36 42 43 37 33 30 32 39 39 33 41 50 44 39 38 40 42 39 45 44 41 58 53 36 44 48 55 71 69 60 52 45 40 37 34 34 33 31 29 28 25
9 10 10 10 11 15 18 18 18 22 21 17 20 22 22 31 50 64 47 17 17 27 27 26 24 34 52 49 40 41 37 36 42 41 37 35 32 36 40 38 48 59 55 48 44 42 46 54 57 52 40 31 34 40 39 35 34 41 47 40 32 36 44 46 47 51 45 52 69 50 30 42 54 64 73 67 56 46 40 38 37 36 35 34 32 30 29 26
10 11 11 12 15 16 20 27 24 19 21 18 20 30 27 42 72 58 20 12 23 31 37 36 37 50 59 47 34 38 45 47 51 49 46 48 47 46 47 48 57 61 57 60 61 53 50 49 49 55 51 36 33 37 42 47 46 44 46 39 29 35 43 45 55 63 52 55 64 43 29 41 55 67 68 60 51 43 41 42 39 39 36 34 33 30 28 28
13 12 12 13 17 18 23 35 31 19 21 18 22 45 48 44 49 34 22 25 23 27 33 36 50 59 58 54 41 38 47 49 49 51 52 57 59 60 60 61 60 46 37 52 58 52 49 40 38 50 47 36 34 36 45 55 49 41 42 42 40 45 48 45 50 61 56 48 44 35 36 41 44 55 60 56 53 45 42 42 39 39 36 33 32 29 28 28
16 14 14 14 16 18 20 27 25 19 22 21 31 57 64 46 24 18 36 34 16 28 39 42 61 64 53 53 45 40 44 42 41 46 49 54 59 63 67 69 64 40 31 48 52 50 55 49 42 39 33 35 37 34 39 45 42 39 41 45 46 45 53 56 56 65 62 49 39 29 42 55 45 47 57 48 42 41 37 38 37 36 35 32 30 28 28 27
19 18 18 18 17 17 17 18 20 21 22 27 47 63 53 34 20 21 40 43 34 44 52 54 62 56 44 41 39 41 41 36 42 49 53 59 62 66 71 71 66 58 56 55 50 52 52 44 40 34 32 38 36 33 37 38 39 44 43 46 45 41 55 65 66 72 63 53 49 35 48 70 54 47 57 44 34 35 32 35 37 35 33 31 29 28 28 27
22 23 22 24 23 20 18 16 19 23 20 25 47 60 41 21 23 30 38 51 55 50 50 56 57 50 49 51 48 39 30 33 50 58 60 67 66 64 71 70 66 71 70 54 47 53 48 41 41 38 37 37 32 36 40 37 41 48 47 50 49 44 51 61 65 66 60 66 73 56 53 58 42 43 56 45 34 32 31 36 35 32 31 29 29 29 28 29
24 27 24 26 28 26 24 20 19 23 25 30 37 44 38 26 30 40 43 49 52 50 55 57 53 50 51 55 57 44 30 34 47 49 53 65 65 62 68 68 63 70 72 60 55 58 54 49 46 43 42 35 33 40 43 39 39 45 48 43 39 39 46 62 71 64 64 80 78 59 53 45 36 46 48 39 36 32 35 40 33 31 31 28 31 30 28 30
22 25 23 25 27 27 29 24 20 23 27 36 40 37 37 35 40 57 65 58 52 56 59 50 40 36 37 47 57 50 39 39 42 35 37 52 58 61 71 69 61 67 75 70 62 64 68 61 50 48 43 37 40 41 44 48 40 40 49 41 37 48 56 69 81 76 79 88 69 52 56 52 53 61 46 34 39 37 39 40 31 31 31 28 31 29 28 30
24 26 22 23 24 26 31 25 20 24 26 42 59 52 44 45 52 70 77 64 58 62 55 42 34 30 32 43 54 54 46 41 43 38 35 43 50 57 68 68 63 71 80 75 65 67 70 58 49 51 46 42 46 38 37 49 46 38 41 39 45 64 73 74 77 78 85 90 74 58 58 59 65 67 51 39 42 43 42 38 32 33 32 31 31 28 28 29
27 30 24 20 20 22 27 21 18 26 29 44 63 56 49 57 67 81 81 64 59 62 50 38 37 40 39 36 45 58 53 42 43 42 36 37 44 56 66 64 63 72 82 79 71 70 66 55 54 59 53 42 40 36 31 39 48 45 38 40 49 58 66 69 68 72 84 91 86 75 67 66 62 52 43 42 43 43 41 37 35 35 32 31 30 29 30 30
28 30 19 15 18 19 17 14 22 40 46 54 65 59 50 54 66 83 89 75 59 49 42 38 39 48 49 41 47 55 51 47 46 41 43 45 44 54 70 76 75 79 85 79 67 65 67 63 59 55 50 42 36 32 28 29 40 43 40 48 58 55 54 65 67 67 78 87 87 84 76 66 50 35 35 41 40 39 38 37 37 34 31 31 29 29 30 30
38 35 19 15 20 20 19 22 39 64 68 64 68 66 56 50 56 73 91 91 71 49 45 46 45 51 50 43 51 52 45 52 52 41 46 50 42 44 63 85 93 91 85 68 57 63 67 68 68 63 53 44 32 25 29 35 33 34 41 44 51 58 61 74 76 62 63 73 75 82 86 70 44 29 32 36 36 36 37 37 35 33 31 30 29 30 30 31
44 40 22 15 15 16 25 40 64 84 80 66 61 61 64 61 50 53 72 78 66 55 53 49 47 55 50 39 49 56 47 49 52 45 45 52 52 51 61 82 93 91 82 64 58 68 71 70 76 74 58 43 34 35 47 54 36 30 42 38 41 60 63 71 80 66 62 69 64 75 89 71 43 31 30 33 36 37 36 35 34 32 30 30 29 30 30 30
37 25 12 14 15 15 25 41 63 76 70 61 58 57 64 66 51 47 61 61 52 50 51 46 41 44 43 41 50 55 43 38 41 41 49 63 64 59 71 87 81 72 71 60 55 66 72 69 65 57 45 34 33 37 44 47 36 31 41 39 44 59 58 63 74 73 81 83 73 83 89 62 40 35 30 31 37 39 35 33 33 31 30 29 29 30 30 31
39 19 15 17 8 11 29 42 52 62 59 52 54 56 56 60 60 59 57 53 53 50 45 44 41 37 44 52 54 51 40 33 34 35 46 63 61 61 84 96 74 57 57 53 52 58 58 58 60 57 49 40 35 35 35 36 35 35 41 42 43 52 61 68 74 83 95 85 73 87 87 55 34 33 30 31 38 39 35 33 32 31 31 30 30 31 31 32
39 26 34 30 12 22 45 52 55 63 65 55 49 50 46 44 56 66 56 49 58 57 43 41 43 44 53 56 55 57 45 30 30 38 49 62 66 70 85 91 76 64 63 64 65 64 60 61 60 56 58 58 54 49 42 40 40 40 45 46 50 66 78 74 76 88 89 73 66 77 75 51 35 34 35 37 41 41 37 35 32 31 31 31 32 32 32 34
35 32 42 40 31 44 60 68 72 64 61 62 48 41 44 37 43 64 64 51 55 57 48 48 49 47 52 57 59 61 50 38 39 45 51 61 68 69 76 83 79 75 80 81 79 79 80 76 61 46 48 54 52 43 35 40 50 53 53 51 60 82 82 65 70 79 70 69 72 65 60 59 49 43 43 43 44 44 39 36 33 31 32 32 32 34 34 35
48 37 36 31 30 49 63 68 75 60 51 62 46 28 41 42 37 52 51 40 51 58 55 60 60 47 42 52 59 56 51 49 47 44 47 60 69 69 75 75 64 67 78 75 74 78 72 67 64 56 50 46 44 40 38 47 55 54 53 53 57 70 66 53 61 62 56 76 84 58 53 66 60 48 47 47 45 42 38 36 34 33 33 33 33 35 37 36
48 38 40 35 28 47 55 49 60 63 59 69 57 37 45 45 39 46 42 40 53 53 44 50 61 63 60 54 47 45 47 46 45 52 57 61 64 66 72 65 51 61 69 61 71 80 65 63 70 60 50 47 45 43 43 49 49 43 46 49 46 53 55 49 53 52 54 76 80 57 55 65 58 49 48 46 42 40 37 35 34 34 34 34 35 37 38 40
39 38 45 47 40 48 51 48 61 62 59 71 63 45 49 45 37 46 52 52 53 49 43 36 43 68 79 63 47 46 46 36 34 52 63 60 64 70 72 64 57 66 66 57 69 74 59 66 77 64 55 53 45 42 43 44 42 40 44 44 40 44 48 48 50 51 54 63 61 55 60 62 53 47 45 41 36 35 35 34 35 36 36 37 39 40 43 48
34 32 36 49 54 57 59 65 71 58 54 71 59 44 58 57 44 52 59 53 43 42 49 41 42 71 82 67 57 51 49 43 34 44 60 63 71 77 71 62 58 65 67 62 61 53 42 56 72 69 63 52 40 40 41 39 40 44 47 42 39 45 50 54 58 56 57 62 57 57 67 65 51 42 40 38 34 35 37 37 38 38 39 42 43 45 51 57
30 28 27 36 46 54 58 67 77 65 54 63 58 48 57 59 54 56 59 66 64 51 48 47 53 76 79 67 64 59 61 71 64 60 67 66 68 70 64 58 53 49 56 62 60 54 50 55 62 67 65 50 37 37 40 37 40 53 60 50 44 53 58 59 59 55 56 64 64 68 76 70 51 40 39 38 36 38 40 40 42 42 42 47 52 55 60 63
30 24 28 39 41 53 67 67 71 63 43 47 60 59 55 61 73 63 46 66 86 72 64 65 61 66 66 56 56 60 71 84 82 78 78 75 76 75 68 65 56 46 49 52 49 54 56 50 53 64 62 47 38 39 44 47 51 64 67 52 44 53 57 55 53 49 49 57 67 76 73 57 43 39 42 42 40 43 45 46 47 45 45 53 60 62 63 64
Wind_Speed
3 3 4 5 6 7 7 7 7 8 9 8 7 5 3 3 4 6 7 8 8 7 4 1 2 3 4 4 2 3 5 9 19 26 21 17 22 21 19 18 17 18 18 14 13 11 8 6 9 13 8 2 2 1 2 1 2 4 3 3 1 3 3 4 5 5 3 2 4 4 1 7 4 4 4 4 8 6 6 6 5 7 8 9 13 16 18 18
3 3 5 6 6 7 6 6 7 7 7 6 5 4 4 4 5 7 7 9 9 8 8 5 1 4 5 4 4 4 2 5 16 19 19 23 24 21 18 17 18 18 18 16 13 10 6 5 9 11 6 1 2 2 2 1 2 3 3 2 2 5 3 3 5 4 2 3 4 4 1 4 4 5 3 3 2 4 7 4 5 7 8 9 13 18 19 20
3 4 5 6 6 6 6 6 6 6 6 5 4 5 5 5 6 7 8 10 9 8 9 11 7 2 5 4 4 4 3 4 10 13 21 26 21 19 18 16 18 18 17 15 12 9 4 4 5 6 4 1 3 2 1 2 1 1 3 1 5 5 2 2 3 4 3 4 5 3 1 2 1 2 1 4 4 2 4 3 3 5 5 6 9 15 18 19
3 5 5 5 6 6 6 7 7 6 5 5 6 7 6 6 7 8 9 10 9 8 9 12 12 5 2 2 4 4 3 5 5 12 22 25 20 19 17 17 18 17 15 13 11 8 5 3 1 2 3 2 4 3 1 2 1 1 3 3 5 3 1 3 3 4 3 3 5 4 1 2 0 1 3 7 5 2 4 5 5 7 7 7 6 11 15 16
4 5 5 5 6 6 7 7 6 6 5 6 7 7 6 6 8 9 10 10 9 8 10 12 11 9 6 5 4 4 1 5 6 16 24 23 21 19 17 17 17 15 14 12 9 8 5 2 4 4 3 2 4 4 1 3 2 2 2 3 4 4 2 5 4 4 2 4 5 3 1 1 1 3 3 7 4 4 5 5 7 9 8 8 7 9 12 13
4 4 4 5 6 7 7 6 6 6 6 6 6 6 5 6 8 9 9 9 9 9 11 11 8 5 6 10 13 6 5 3 9 18 23 23 20 18 16 15 15 16 15 14 11 10 8 6 6 4 3 3 3 3 2 5 3 1 3 1 2 4 3 3 3 3 2 6 4 4 2 2 3 1 2 5 4 5 5 7 9 9 10 12 11 10 10 9
3 4 5 6 7 7 7 6 6 6 5 5 5 4 5 7 8 9 9 8 9 11 13 12 5 1 2 3 13 15 9 1 13 19 21 23 19 17 15 11 14 17 19 21 16 8 7 9 6 3 4 4 2 2 3 5 4 4 1 2 2 3 3 4 4 2 4 5 3 5 3 2 4 2 2 3 4 5 7 9 11 12 15 16 12 9 9 10
3 4 5 6 6 6 6 5 5 4 4 4 4 4 5 7 8 8 9 9 9 12 17 17 8 3 4 3 4 10 6 5 17 21 21 22 18 16 12 9 13 16 19 21 15 6 5 8 5 1 4 2 0 1 3 4 5 4 1 2 1 1 2 3 2 2 3 3 3 6 3 3 6 4 3 4 6 7 8 9 11 12 13 12 9 8 9 10
4 5 5 5 6 5 5 4 3 3 3 3 3 4 5 6 7 7 8 8 10 12 16 21 16 9 8 6 6 7 5 10 19 20 20 21 16 14 11 10 14 15 15 15 17 13 6 4 3 0 2 1 1 2 3 3 2 0 1 3 2 2 3 2 2 3 3 2 5 6 2 3 4 3 2 7 9 7 9 9 9 10 10 9 8 8 9 10
4 4 4 5 4 4 3 2 2 2 2 2 3 4 5 6 7 7 8 7 9 10 10 14 18 18 15 9 8 7 7 12 20 20 19 19 14 11 14 14 16 16 14 14 17 14 6 1 3 2 3 1 2 2 2 3 1 2 1 1 1 3 3 1 3 5 3 2 6 7 4 2 2 1 2 7 9 8 9 9 8 10 9 8 7 7 11 11
4 4 4 4 4 3 3 2 2 2 2 2 3 4 5 6 7 7 7 7 6 6 8 8 11 19 22 15 9 6 8 13 20 23 19 17 12 10 13 14 14 16 14 13 14 12 8 4 1 2 2 1 1 3 2 1 2 2 1 1 4 6 3 2 4 6 2 2 6 6 3 1 0 1 5 8 9 9 10 9 8 9 8 8 8 7 9 11
4 4 5 5 4 4 4 4 3 3 3 4 4 4 5 7 8 9 9 8 6 4 5 7 7 8 11 13 8 3 9 12 17 24 21 15 10 7 10 11 12 13 11 10 11 13 14 9 8 7 1 0 1 2 1 1 1 2 4 2 6 9 4 3 5 4 1 2 4 6 1 1 3 6 7 7 9 9 10 10 7 8 7 7 7 6 7 10
4 5 5 4 5 5 6 5 5 5 5 5 5 5 6 6 7 9 10 8 6 5 5 6 7 6 5 6 5 7 12 12 16 25 22 14 8 4 6 8 9 10 9 9 8 11 16 12 11 8 1 3 1 1 1 2 4 4 6 3 4 8 4 4 6 5 2 1 4 5 4 5 7 9 6 6 10 10 9 9 7 7 7 6 7 6 6 9
5 5 5 5 7 9 10 10 9 8 7 7 5 5 4 4 6 8 11 11 7 5 7 6 5 7 8 3 2 11 15 14 20 29 26 17 9 5 7 7 6 7 7 9 9 6 12 15 13 7 3 4 0 2 4 5 5 4 5 3 4 3 5 7 6 5 5 2 4 4 7 8 7 8 4 7 9 11 9 8 8 7 6 6 6 6 5 7
5 6 6 9 11 13 13 13 12 12 11 10 8 7 5 2 5 7 11 14 11 5 5 8 5 5 6 2 2 14 18 20 25 30 28 20 11 8 13 11 5 8 9 11 10 5 9 16 14 5 4 4 4 5 4 4 5 4 4 4 3 0 5 10 7 3 3 4 4 3 6 7 6 6 3 7 8 10 9 7 8 8 8 7 6 6 5 4
6 7 9 11 12 13 13 13 13 14 15 15 16 15 10 4 3 7 11 14 16 12 9 9 6 5 6 1 7 14 17 20 23 28 27 18 8 7 15 12 5 9 10 13 13 9 12 13 8 3 3 5 6 5 4 5 5 4 3 3 5 3 4 8 7 3 4 4 6 3 4 7 6 3 4 7 7 8 7 7 8 9 8 7 6 5 5 4
8 8 9 9 9 10 11 11 9 10 13 15 19 21 21 14 6 6 6 6 9 10 12 13 8 4 6 5 7 10 13 17 21 28 29 17 7 10 14 7 6 10 8 12 15 11 10 8 3 2 4 5 4 3 5 5 5 4 4 2 4 3 4 5 7 6 6 6 5 2 3 8 10 5 5 8 5 7 7 7 8 9 7 7 6 5 5 6
8 7 7 6 6 8 10 8 6 7 9 11 12 15 22 26 21 16 11 5 1 3 8 16 12 4 4 7 5 10 15 17 20 27 30 18 8 12 13 5 5 9 6 7 12 9 6 5 3 2 4 5 5 6 5 1 3 3 4 4 4 4 3 5 7 6 8 5 4 5 5 8 13 10 5 6 5 9 8 8 8 9 8 6 5 5 6 7
9 7 5 4 6 9 9 7 5 4 4 4 4 4 10 17 21 26 25 17 8 4 3 9 8 4 3 6 7 14 14 12 19 27 31 22 9 10 15 9 5 7 5 3 6 6 4 4 5 4 4 6 4 3 4 5 5 5 6 3 5 5 4 7 8 4 8 7 5 6 8 9 13 13 7 2 9 11 9 10 9 8 7 6 6 5 6 6
10 7 5 4 7 9 9 8 5 2 2 2 2 1 3 4 8 11 15 14 8 6 5 2 2 3 3 5 8 17 11 7 16 25 33 27 11 8 13 10 7 7 5 2 4 5 4 6 5 2 4 7 6 3 4 4 3 2 4 2 5 6 4 7 9 6 6 6 8 9 8 9 8 11 9 6 12 12 11 11 9 8 8 7 7 6 6 6
11 8 5 5 7 10 10 9 9 9 5 2 2 4 2 2 5 1 2 5 4 6 8 3 3 3 3 4 8 15 6 4 11 20 32 26 9 7 8 7 8 7 5 3 2 4 5 7 4 5 6 5 3 0 2 3 3 3 3 3 5 5 7 9 9 6 6 6 11 11 7 6 7 10 8 10 13 11 11 11 9 9 8 7 8 7 6 4
12 9 7 6 7 9 11 10 10 11 10 10 11 10 4 5 7 6 3 4 3 5 5 3 5 4 5 3 8 12 4 5 11 17 30 25 10 6 4 5 7 3 6 4 3 6 6 5 5 7 3 2 5 4 5 5 3 4 3 2 4 5 8 10 7 1 5 4 10 10 6 4 7 9 9 12 13 10 10 11 10 9 8 7 7 6 5 5
13 11 9 7 7 8 10 10 9 8 10 12 13 11 7 8 8 5 3 5 2 3 3 4 5 5 6 5 11 13 7 7 6 12 25 20 7 4 3 6 6 3 7 6 4 5 3 2 4 4 4 7 7 6 6 6 3 3 2 2 4 5 5 7 7 5 4 3 6 9 6 3 6 8 10 10 10 10 9 10 10 8 8 6 5 4 4 6
11 12 11 9 8 7 7 9 9 10 10 11 12 11 10 8 6 3 3 4 2 2 1 1 2 3 4 4 12 9 4 4 2 9 22 16 4 3 4 4 5 5 6 4 6 6 0 5 1 5 8 8 5 5 6 5 5 4 2 2 5 7 6 7 10 10 8 4 3 5 5 2 4 6 8 6 7 9 7 9 9 7 6 5 5 5 5 6
10 11 11 10 9 7 3 5 9 9 7 7 9 8 8 6 3 2 3 4 3 3 2 1 1 5 4 6 13 5 3 5 4 8 18 14 5 3 4 2 4 6 5 1 4 4 1 4 2 5 6 7 5 5 3 1 4 6 3 3 5 8 10 12 11 8 6 5 3 4 3 2 1 6 6 3 5 7 6 8 8 6 6 6 7 8 6 7
10 10 10 9 8 8 3 2 6 5 3 4 5 4 4 4 3 2 3 4 3 4 5 3 2 8 8 9 13 3 4 6 5 12 20 17 6 2 4 4 2 5 3 1 2 1 1 3 4 5 4 6 7 5 2 1 4 5 4 3 5 8 10 15 12 5 2 4 4 3 3 3 1 4 4 3 5 6 5 7 7 6 7 7 8 8 7 8
9 9 9 9 8 9 3 1 3 3 1 1 3 3 2 3 3 3 3 5 4 3 4 4 3 8 8 9 12 3 4 7 7 15 20 20 10 2 6 6 3 3 2 2 4 2 2 6 6 5 5 6 5 5 4 1 2 5 5 2 6 10 11 15 10 2 3 3 4 3 1 3 3 2 4 4 5 5 5 6 6 6 7 8 9 8 8 9
10 9 9 9 9 9 3 1 2 1 2 2 2 3 2 4 5 3 5 5 3 1 1 3 3 7 6 9 11 7 1 5 4 10 16 22 17 3 5 6 1 4 3 4 4 5 2 4 5 3 5 5 2 5 6 2 1 7 6 3 5 8 10 12 8 3 3 1 3 5 2 3 3 2 4 3 4 4 4 6 6 7 8 9 9 9 9 9
10 9 8 8 7 6 2 1 1 2 3 2 2 2 4 5 4 3 6 3 2 1 1 2 3 5 7 8 9 6 3 4 3 6 12 20 20 7 4 3 2 2 3 5 3 5 2 1 2 3 3 2 4 8 5 3 3 7 5 4 6 5 6 8 5 3 2 0 4 4 2 1 3 2 4 2 3 3 3 3 4 6 6 7 8 8 8 9
10 9 7 5 3 2 1 1 1 3 3 3 3 3 5 5 4 6 5 1 1 2 1 3 3 4 8 8 7 6 5 4 3 5 6 8 16 12 3 1 5 3 3 6 2 4 5 2 2 3 1 2 4 7 4 5 5 6 5 6 7 5 4 3 2 1 2 1 5 4 1 2 4 1 3 1 3 4 2 3 5 6 6 8 8 8 8 9
13 12 10 7 3 1 1 1 2 4 3 4 4 4 4 2 5 7 3 1 1 3 4 4 3 4 8 6 5 6 5 5 5 6 5 5 10 11 6 5 5 4 5 6 5 7 7 3 0 2 2 1 2 5 3 2 3 4 3 5 7 6 3 3 4 3 3 5 6 2 3 4 4 3 3 4 5 6 4 3 5 7 7 7 7 7 8 8
14 14 14 12 8 4 1 2 3 4 2 4 5 4 4 3 5 4 2 3 2 3 3 2 4 5 6 4 5 6 4 4 5 5 4 4 6 7 7 6 4 5 6 5 5 8 5 1 3 5 2 3 4 5 5 4 5 5 3 5 7 6 5 6 5 4 4 6 5 2 7 5 5 3 6 8 5 5 5 3 3 5 6 7 8 8 9 9
13 14 15 15 12 8 4 3 2 3 3 5 4 5 6 5 3 1 3 3 1 2 1 1 4 4 4 4 5 6 3 3 5 5 3 2 5 5 6 6 6 4 3 3 4 6 4 4 4 5 3 3 5 5 6 5 4 5 3 3 4 3 6 8 6 4 5 7 3 3 5 4 4 2 9 11 7 7 5 4 4 5 7 8 9 8 8 10
11 13 14 15 14 10 6 3 2 3 4 4 5 6 8 5 0 1 3 3 1 3 1 0 4 4 4 4 2 4 3 3 3 5 4 4 5 4 4 6 7 4 1 2 3 2 4 5 3 2 2 3 5 3 3 5 5 4 1 4 3 1 3 6 4 3 8 9 5 2 1 4 5 2 9 12 7 5 4 6 5 6 7 7 9 9 11 13
8 12 14 15 15 11 6 3 2 3 4 5 7 6 6 2 3 0 1 4 2 4 3 1 3 5 4 3 2 2 2 3 2 5 4 4 3 3 3 4 5 4 1 2 2 1 1 5 6 2 2 1 7 5 2 1 4 3 1 3 2 2 3 4 5 5 6 8 5 1 1 4 2 2 6 7 2 6 7 9 9 10 10 10 11 12 13 13
4 9 14 17 17 13 7 3 2 2 3 6 8 6 3 2 2 2 1 2 1 3 5 5 5 5 4 4 4 4 2 1 2 4 3 2 2 3 3 2 2 4 2 1 1 1 1 6 7 6 3 1 5 6 2 2 2 2 2 2 5 3 4 2 6 3 2 5 4 1 3 3 1 2 3 1 7 10 10 10 10 10 11 12 11 11 11 10
1 3 10 18 20 13 7 4 4 4 4 7 8 3 2 2 1 2 2 1 0 1 3 4 3 3 3 3 4 6 5 3 3 4 2 1 1 2 3 3 2 3 1 1 1 0 1 6 8 4 4 5 3 5 3 0 0 1 1 4 5 1 3 2 3 3 2 5 5 4 7 6 3 3 2 7 12 13 11 9 8 9 11 11 10 9 10 10
1 1 5 18 21 11 5 5 6 6 7 8 7 3 1 1 1 1 1 0 0 2 5 2 1 2 1 1 3 5 5 4 4 4 2 2 2 1 2 3 2 2 3 1 0 0 1 5 7 1 3 8 6 5 4 4 2 1 2 2 3 3 4 2 2 5 6 6 6 9 11 7 3 2 5 9 11 10 8 7 8 11 11 9 9 10 11 11
3 1 3 17 20 10 7 7 7 8 8 6 4 2 1 1 1 1 1 1 1 3 4 1 1 2 1 0 2 4 4 3 3 3 2 2 3 2 3 1 3 4 5 1 2 1 0 1 6 3 3 7 6 4 4 6 4 2 2 4 2 1 4 3 2 4 6 7 8 10 11 4 2 1 3 7 8 7 9 9 9 10 9 8 10 10 11 11
3 3 2 17 16 6 11 16 12 9 7 4 3 2 1 1 1 2 2 1 0 2 2 1 0 2 2 2 1 2 2 3 3 2 1 1 2 1 2 1 3 6 6 3 2 1 1 1 5 6 5 6 4 3 4 5 4 4 5 5 4 3 3 4 3 1 3 6 6 9 10 3 3 2 1 5 7 8 10 10 8 8 10 10 11 11 11 11
3 3 3 18 13 2 6 16 11 5 4 3 2 2 1 1 0 2 2 1 0 0 1 3 2 1 0 2 2 1 2 3 2 2 1 2 2 1 1 1 1 5 4 5 3 1 1 1 4 6 6 4 5 5 3 3 1 2 3 3 4 3 3 5 6 3 2 4 5 8 11 5 2 4 2 4 8 11 10 9 9 10 11 12 11 12 11 11
5 3 5 16 9 4 8 9 3 3 4 3 2 2 1 1 2 1 1 1 1 0 1 3 2 1 1 1 1 1 1 2 2 2 0 1 1 2 2 2 2 2 1 2 3 2 1 1 3 6 5 6 10 6 1 1 0 2 1 1 2 2 2 4 7 6 5 8 8 7 10 6 3 4 3 7 8 9 8 8 11 11 11 13 13 13 13 12
4 3 5 13 4 5 11 7 3 5 4 0 1 1 1 2 2 1 1 2 1 1 3 2 0 1 1 0 0 1 1 1 0 1 0 1 1 4 3 4 4 0 2 2 3 2 0 1 3 6 5 5 8 4 2 2 4 4 2 2 3 4 4 5 6 4 5 10 9 7 9 6 2 1 10 11 7 7 8 10 12 13 12 12 14 14 14 13
3 3 5 16 6 3 5 5 2 3 2 0 3 2 2 1 2 2 1 2 2 1 2 1 0 1 0 1 2 1 2 1 0 0 1 1 1 3 3 3 2 1 1 0 1 2 2 1 2 5 7 8 8 7 5 4 5 4 4 4 4 6 8 6 3 2 2 5 7 7 10 8 4 8 15 14 9 9 11 12 13 13 13 13 13 13 13 13
4 1 3 15 19 10 4 3 6 5 3 3 4 2 2 2 1 1 1 1 1 2 2 1 1 1 1 1 2 2 2 2 1 1 2 1 2 3 2 2 1 0 2 4 2 1 1 1 2 3 4 8 9 9 10 9 7 5 5 7 6 4 5 4 3 2 3 4 5 6 11 12 12 17 19 15 12 13 14 13 11 12 13 14 13 13 13 13
3 3 2 8 14 11 4 1 5 6 4 4 4 2 2 2 1 1 2 1 1 1 2 2 1 2 3 4 4 3 3 2 1 1 2 1 3 3 2 1 1 1 2 3 2 3 2 1 1 4 3 6 9 11 11 10 10 10 11 12 8 3 3 3 3 4 6 7 6 7 12 16 19 21 18 15 15 16 15 14 13 13 13 14 14 14 15 14
2 3 2 2 4 5 5 4 5 4 3 4 3 1 2 2 2 1 1 1 1 1 2 2 3 3 3 3 3 2 4 3 2 1 1 3 3 3 3 1 0 3 1 1 1 4 3 2 3 4 7 9 11 14 14 10 10 12 14 11 6 4 5 6 3 6 8 8 10 13 17 21 22 20 16 14 15 16 16 16 16 15 15 14 14 15 17 15
3 3 1 1 2 2 3 3 3 5 4 4 3 2 2 3 2 1 1 1 2 2 2 2 5 4 2 1 2 0 4 5 3 1 1 2 3 3 4 1 1 4 2 2 2 3 4 2 4 3 8 12 12 13 13 9 8 11 12 7 3 5 6 4 5 8 7 7 14 21 23 23 22 17 14 14 16 17 17 17 16 16 16 16 15 16 17 16
3 4 1 2 4 3 2 1 3 6 6 4 3 2 2 3 2 0 1 2 3 3 3 3 5 5 3 2 3 2 2 2 3 4 2 2 2 2 2 2 2 3 3 3 2 2 3 3 5 3 8 12 11 10 9 8 10 13 9 2 3 4 5 5 6 8 9 11 16 22 24 22 16 12 13 14 15 16 15 15 16 17 18 18 18 18 16 16
3 4 1 3 4 2 1 2 3 5 5 4 3 2 2 3 2 1 1 2 2 3 4 3 4 6 2 2 4 2 3 4 4 6 3 1 3 1 1 2 2 4 4 3 2 1 2 4 4 2 5 9 9 9 8 10 13 12 6 3 3 4 6 7 7 9 11 15 18 20 21 16 9 8 13 14 13 15 17 18 18 18 19 20 19 18 16 15
5 5 6 7 4 3 3 3 3 5 3 3 2 1 1 2 3 2 2 2 2 1 1 1 3 4 1 2 3 1 5 5 6 7 6 3 3 3 2 2 2 1 4 2 2 2 3 3 3 4 5 7 8 11 15 17 14 8 5 5 5 6 7 8 9 11 14 18 21 19 14 11 9 11 14 14 14 17 19 19 19 18 20 20 18 17 16 16
7 5 5 7 4 3 2 3 3 4 2 1 1 1 1 1 1 2 3 1 2 2 1 2 2 1 2 3 2 3 5 5 6 5 4 3 1 1 0 1 3 2 1 0 1 1 2 2 4 3 4 9 10 12 14 13 9 6 2 1 4 9 11 11 12 14 15 16 16 13 10 11 14 16 16 17 18 18 17 16 18 20 20 17 15 17 19 19
Wind_Direction
80 50 36 40 40 40 37 26 17 6 4 6 9 24 53 67 29 20 14 12 13 15 23 319 220 197 189 191 224 341 11 32 29 32 34 10 359 357 352 351 351 354 355 356 354 351 348 351 359 3 6 2 1 307 325 24 70 55 83 99 203 205 194 199 188 192 168 183 243 293 111 136 159 199 159 62 54 78 74 58 57 60 68 86 98 86 70 65
69 41 35 44 43 41 34 21 13 2 3 4 17 51 79 72 35 22 12 9 18 31 43 41 19 224 224 227 255 322 352 24 26 28 17 2 359 356 352 350 350 351 352 354 351 354 1 336 342 0 16 19 315 330 353 340 73 86 121 97 232 207 200 207 183 190 181 155 198 275 272 143 157 183 162 100 92 80 85 61 57 71 69 78 84 79 71 66
52 42 43 48 46 39 26 15 10 3 7 16 50 86 85 65 37 24 14 13 22 38 42 34 34 219 230 248 265 312 304 3 25 10 359 359 359 357 356 353 351 351 351 351 347 339 314 285 324 359 21 338 303 353 16 340 22 131 123 91 249 212 200 264 192 193 216 155 158 229 282 69 85 166 99 127 136 79 125 144 96 103 105 92 81 81 76 67
47 49 48 47 41 29 20 16 14 11 24 54 85 90 79 56 37 30 22 21 22 30 27 22 34 56 179 257 288 289 325 37 15 341 351 358 359 356 359 358 355 354 351 353 356 350 317 280 329 47 49 331 316 25 47 321 16 79 98 177 229 171 154 260 225 218 226 158 155 190 64 59 146 86 103 133 126 303 218 196 158 151 141 118 96 87 83 74
52 53 45 37 30 25 21 19 20 32 57 80 89 83 71 48 34 32 30 30 23 19 15 16 33 55 76 44 348 261 36 54 328 338 354 356 357 357 2 5 4 1 356 358 6 22 28 38 72 62 53 354 338 27 345 307 64 47 354 194 186 131 186 250 233 238 223 104 107 137 148 199 178 53 119 148 167 239 214 182 150 145 142 127 114 98 88 80
60 48 32 25 26 28 24 25 35 58 78 83 87 76 61 38 29 34 37 37 31 24 16 12 15 42 77 54 44 63 99 87 315 341 355 355 356 360 7 12 16 14 12 22 28 45 44 35 54 44 35 30 7 50 323 317 42 78 303 299 205 170 179 226 214 240 156 107 120 169 184 107 90 35 165 150 204 213 164 144 137 135 133 122 111 103 93 86
59 31 24 26 29 33 27 36 53 72 88 85 86 68 45 32 30 37 41 40 36 36 30 19 1 15 145 75 50 58 85 54 331 348 356 355 358 2 10 18 24 26 31 36 34 49 49 32 40 47 53 39 2 34 331 321 34 85 218 296 241 177 160 193 186 179 138 133 176 154 127 130 154 200 132 129 194 173 141 135 131 128 124 114 105 103 99 95
41 26 26 31 34 36 36 50 64 82 94 87 80 50 35 32 36 42 43 41 42 50 43 35 40 94 108 135 76 56 56 324 342 355 355 355 0 6 12 23 26 30 38 40 38 56 70 36 23 33 62 45 37 342 326 340 22 63 151 282 260 194 220 219 195 179 160 144 121 119 136 225 192 176 138 169 183 159 146 135 128 123 116 112 110 108 102 96
36 29 31 36 36 39 47 58 69 87 89 79 60 34 32 32 40 44 41 42 47 60 52 42 51 81 95 100 102 62 357 333 351 355 356 357 360 11 27 31 23 24 33 39 40 49 66 44 349 109 119 196 78 15 333 17 350 283 294 303 317 297 281 267 256 239 217 163 126 140 214 266 201 182 192 191 183 165 144 133 132 126 118 119 118 115 110 102
37 33 35 32 29 37 46 44 49 70 68 58 39 33 40 38 42 42 40 41 43 57 53 43 51 64 76 81 78 60 337 351 8 360 357 1 1 19 36 30 20 21 26 32 37 42 59 41 270 197 136 148 31 1 358 62 193 233 269 263 6 332 309 358 285 269 271 217 177 181 217 243 211 223 266 208 185 164 141 139 140 127 127 128 122 117 112 108
37 33 26 19 19 13 2 356 1 24 43 45 41 44 46 43 43 42 47 47 39 50 45 35 40 56 68 70 76 63 349 3 12 4 3 5 6 17 25 22 16 16 19 32 37 35 34 9 334 134 102 48 356 354 15 96 219 256 333 282 335 348 344 28 312 278 287 239 189 164 179 233 308 257 227 202 180 166 148 150 147 130 134 128 120 116 108 108
34 26 19 16 5 350 351 2 15 32 42 45 47 51 49 52 56 53 58 58 49 46 43 40 32 44 64 62 72 57 4 8 4 4 8 10 10 5 10 10 5 6 11 23 27 34 35 26 59 77 347 227 112 14 40 238 328 347 32 5 325 360 4 347 338 290 235 225 178 130 72 257 220 246 232 184 166 165 153 153 149 133 130 123 117 109 101 104
30 24 19 15 9 21 36 40 48 46 49 52 51 51 51 60 60 52 50 54 58 58 52 48 46 48 59 63 56 19 8 3 359 5 9 12 14 353 356 351 343 352 1 7 8 39 48 48 75 89 60 89 139 331 88 11 25 13 21 42 347 5 328 318 2 338 337 239 129 101 305 273 233 249 242 173 159 158 160 158 145 132 123 119 113 103 103 104
30 26 28 44 57 66 66 64 66 61 61 57 50 43 40 58 50 47 54 59 68 75 62 50 68 71 58 99 48 8 1 358 4 6 4 3 7 10 359 345 345 357 354 1 3 31 54 56 72 85 56 69 293 350 39 8 20 10 355 29 41 14 290 312 340 345 350 329 76 66 291 282 278 279 231 173 164 161 168 158 133 129 120 113 112 104 106 106
35 37 58 76 79 76 71 73 76 79 78 68 63 46 26 33 34 52 70 67 66 80 77 50 59 89 60 91 345 0 359 2 5 3 1 357 358 5 352 351 15 25 23 23 24 50 55 53 61 52 326 353 35 40 21 356 18 25 4 340 353 96 284 310 310 19 35 312 17 34 280 280 302 309 211 180 175 167 160 143 124 123 120 112 111 105 105 103
44 58 82 91 85 75 70 73 79 86 84 75 70 60 52 51 36 78 84 73 69 66 63 36 22 91 89 349 334 357 360 1 357 356 4 5 358 348 344 351 7 11 36 48 47 60 49 49 66 56 351 2 38 58 38 19 357 7 39 299 292 303 312 317 309 359 53 344 354 12 276 287 303 319 210 202 186 162 130 113 113 116 118 110 106 107 106 83
55 78 97 97 82 67 60 65 77 88 88 81 74 65 63 64 72 115 108 83 71 53 47 29 9 102 81 2 347 352 344 347 350 356 8 15 12 1 355 0 358 2 53 56 35 34 30 38 62 38 43 34 28 59 56 22 329 329 23 314 276 281 294 316 306 321 28 27 348 322 248 276 292 295 217 216 182 128 103 102 108 107 106 103 105 108 92 72
65 86 98 91 65 44 41 55 82 96 98 90 76 67 68 69 74 78 67 68 35 339 27 19 18 91 28 356 351 330 325 337 353 1 10 18 21 19 18 20 355 9 50 35 20 23 9 21 57 38 28 21 18 53 67 313 278 293 313 309 298 293 275 291 288 313 10 9 314 311 294 289 299 302 250 210 124 97 99 100 100 98 98 102 99 94 78 67
68 82 88 70 39 32 37 57 87 112 129 91 57 70 76 70 69 62 52 55 58 43 39 354 13 107 323 323 323 331 329 340 1 7 10 10 2 19 29 29 19 35 50 13 6 19 19 29 45 36 3 349 346 92 138 206 209 247 269 255 274 290 275 275 272 297 354 340 305 313 312 306 306 315 324 118 102 94 98 93 92 92 89 86 74 72 68 63
70 76 73 47 37 41 47 54 47 25 232 252 310 23 82 57 50 43 32 42 67 90 104 329 4 103 330 305 326 346 350 356 11 11 6 1 346 6 21 15 23 47 47 1 337 357 50 64 41 7 284 300 298 200 167 188 171 235 289 275 278 286 285 286 284 299 8 356 301 307 318 308 316 341 359 75 93 88 93 89 86 85 74 66 58 49 47 53
67 65 58 51 49 47 48 47 40 43 59 119 97 68 117 123 76 110 329 34 59 82 91 59 38 65 332 292 332 354 357 343 8 10 4 1 360 16 5 4 33 34 354 325 325 352 54 66 10 294 258 278 320 106 89 66 82 31 343 328 325 307 293 289 280 299 31 14 300 310 334 327 1 18 27 72 81 78 86 86 80 79 75 63 54 42 33 39
62 56 50 48 49 45 43 44 47 58 71 87 91 86 120 134 113 148 155 87 38 36 72 38 37 31 338 341 350 355 20 0 358 3 2 3 18 31 3 29 51 16 339 4 19 7 42 51 321 299 277 58 35 38 43 39 52 29 9 359 338 314 304 294 264 260 40 358 301 318 351 16 36 44 51 68 81 79 75 82 80 75 71 57 44 35 28 27
55 52 51 47 49 48 44 47 51 61 71 83 90 96 118 116 116 140 103 94 64 2 36 27 40 7 349 22 358 358 44 31 348 347 358 4 19 45 65 45 47 12 358 25 63 54 46 348 321 337 45 56 22 12 33 28 23 19 1 344 309 303 331 312 296 321 339 267 272 309 335 79 78 64 62 64 82 85 77 82 80 75 75 65 51 44 36 30
44 45 48 47 45 40 45 52 51 58 65 80 94 108 132 131 117 110 83 86 59 345 35 54 113 23 353 6 351 354 75 44 7 347 358 8 5 23 68 60 50 27 1 36 81 85 186 275 332 47 44 54 28 6 37 32 353 321 260 263 301 308 311 285 292 317 321 288 271 322 336 39 81 81 82 73 74 78 77 77 71 66 69 61 45 38 36 35
32 33 37 39 37 30 53 60 45 53 59 77 100 116 138 148 148 94 96 76 14 309 345 16 91 18 346 344 350 349 130 37 47 1 359 10 358 358 34 42 70 23 334 18 68 70 309 283 28 46 27 43 41 8 23 70 352 324 260 231 283 304 305 293 300 329 339 319 330 18 10 324 61 98 102 89 76 72 65 68 67 51 43 38 24 19 23 27
23 22 21 23 27 21 35 73 32 36 44 72 110 137 145 161 188 138 105 66 6 298 347 4 1 5 350 339 339 346 83 7 8 18 12 11 355 131 44 346 45 24 313 288 26 56 329 338 45 73 48 33 32 8 324 125 33 327 257 229 286 303 306 301 308 339 340 282 299 30 95 236 246 102 114 115 90 75 66 67 62 42 32 27 16 12 16 15
15 10 4 1 8 13 26 145 13 18 68 132 145 148 154 168 156 133 89 42 1 292 355 336 330 10 3 339 340 49 79 315 341 19 15 11 359 106 59 9 354 349 287 62 23 285 310 354 20 48 49 37 26 350 306 171 58 285 266 338 316 312 310 301 304 293 236 265 311 351 113 237 268 124 165 152 95 69 66 60 43 34 26 18 13 10 13 10
7 359 352 345 349 2 25 94 6 64 137 171 163 141 154 152 140 115 86 65 346 311 33 308 327 14 3 354 11 66 99 310 13 2 359 18 15 26 67 36 359 279 278 68 19 282 301 5 346 8 34 32 351 302 282 217 243 266 272 304 288 299 302 293 297 272 249 279 308 316 345 293 288 172 191 176 87 57 47 45 26 19 15 13 9 3 9 5
8 1 352 343 340 350 10 22 337 187 173 170 148 145 149 134 122 65 74 101 329 349 166 311 353 352 348 5 19 41 12 1 55 335 351 22 17 23 97 40 46 251 282 63 45 279 295 289 234 108 66 354 283 283 263 181 253 275 290 308 288 293 285 278 288 280 285 210 250 282 23 330 290 191 182 183 86 61 33 47 28 9 8 10 2 358 0 354
20 19 13 2 341 324 273 272 265 178 182 172 146 141 138 112 75 55 47 62 348 335 301 16 11 338 5 18 2 7 25 8 345 348 6 20 10 20 75 12 51 79 347 26 31 286 309 293 182 116 111 225 267 287 251 185 251 307 359 341 317 303 267 275 323 49 39 310 238 229 102 4 310 227 172 150 112 107 61 33 10 359 7 5 356 355 352 344
32 32 32 31 31 321 251 205 166 159 172 171 146 111 113 60 56 85 62 305 325 336 359 14 344 4 29 37 360 356 15 346 341 20 18 4 13 18 20 9 27 46 13 8 343 323 344 18 176 288 277 122 318 297 285 253 310 8 24 342 333 323 315 351 4 40 21 301 252 233 5 344 288 245 150 138 136 121 96 41 2 354 1 356 347 348 346 342
37 40 39 38 41 39 72 154 162 153 154 161 138 81 86 28 28 84 317 321 347 336 1 328 316 4 13 25 13 346 349 348 355 48 31 11 33 28 33 27 358 360 7 0 342 338 345 286 298 312 313 49 7 318 317 331 3 19 9 7 1 341 341 342 331 341 316 277 259 339 355 325 258 224 145 148 159 141 123 90 18 359 356 351 347 346 344 339
41 46 44 40 40 40 57 103 130 134 147 147 111 53 75 76 38 297 297 338 16 326 342 284 310 341 348 19 7 332 353 2 350 27 29 45 46 26 32 28 17 22 340 331 357 347 326 300 328 349 342 35 26 347 331 326 339 349 349 56 34 351 334 317 303 308 288 269 264 352 345 297 277 236 154 152 157 156 130 74 43 16 3 352 345 339 338 339
45 45 41 36 35 32 39 67 89 131 144 120 82 47 63 76 191 273 317 290 277 332 16 317 319 342 25 50 347 325 13 347 347 35 12 23 41 8 3 5 15 45 228 335 6 351 344 313 310 23 322 346 9 328 282 290 296 299 206 127 82 13 303 289 265 265 292 293 299 359 336 250 274 273 163 157 146 132 77 38 37 20 6 351 341 344 349 350
48 40 35 27 23 22 27 46 82 139 136 87 65 58 73 101 240 174 314 271 286 331 324 333 9 25 17 347 325 3 39 307 354 60 26 26 51 354 347 344 354 18 54 9 332 288 354 269 262 311 240 313 1 325 231 320 301 279 145 94 16 272 221 249 247 234 272 293 290 275 222 230 259 56 142 155 72 38 31 19 16 8 1 353 352 357 354 349
47 39 33 22 15 13 19 46 92 133 124 83 64 59 104 181 221 154 211 285 358 311 324 359 35 40 347 316 338 356 358 303 1 46 32 50 78 357 344 300 328 17 63 88 319 337 10 270 284 326 293 182 6 318 277 76 307 313 33 324 287 245 173 238 282 273 291 290 275 233 279 287 351 80 127 80 357 7 13 11 9 359 355 355 356 355 345 338
3 37 31 19 12 8 17 66 108 111 95 79 78 93 177 193 174 171 214 335 7 261 35 31 16 23 347 315 322 332 345 354 2 25 21 2 43 10 344 301 304 38 48 187 235 191 235 282 290 314 289 281 338 333 304 140 28 21 356 293 292 305 113 116 285 303 312 274 271 287 291 295 287 272 348 5 354 354 356 358 354 350 357 355 347 339 333 332
329 171 37 15 9 8 30 80 103 95 82 69 77 122 161 139 185 199 182 107 167 58 65 68 324 30 37 307 298 313 347 1 351 12 28 349 356 55 26 317 297 32 359 287 227 254 199 296 295 245 263 295 333 17 335 322 3 127 212 306 354 332 318 353 309 300 300 283 285 295 291 284 248 267 347 350 340 334 331 343 352 351 354 343 331 328 326 328
12 81 34 2 6 28 59 78 87 66 69 75 84 129 134 113 265 246 176 139 108 82 71 92 287 12 42 59 289 303 351 15 345 358 51 12 345 72 75 335 292 342 348 42 131 290 268 287 289 293 338 321 339 17 333 320 334 345 346 358 18 275 277 296 297 290 294 290 292 297 297 294 149 151 344 327 313 316 331 349 355 344 336 327 324 326 324 324
24 88 9 351 1 49 61 62 67 50 61 101 144 136 94 163 272 282 228 211 117 102 87 171 199 1 339 1 353 305 359 22 350 1 55 12 336 11 54 35 305 321 336 22 72 326 345 230 268 295 343 352 340 322 314 315 329 349 350 343 340 323 291 289 276 227 278 291 296 300 298 295 132 145 321 314 314 335 349 351 341 329 326 322 320 320 319 316
49 91 337 347 349 256 38 49 55 48 74 87 105 107 66 145 158 327 284 254 328 166 138 145 132 91 266 349 345 301 347 3 13 43 38 4 22 354 346 102 323 312 340 12 16 2 2 226 259 297 332 340 292 275 284 274 279 5 335 319 319 302 314 321 299 279 287 287 289 293 293 298 146 151 119 356 341 350 355 344 333 327 322 318 316 315 312 311
60 96 323 352 16 106 60 52 28 39 92 73 57 116 59 100 115 356 326 25 44 356 53 99 106 101 156 253 297 286 359 350 10 46 28 335 74 224 257 25 342 291 79 1 295 251 188 158 267 286 286 274 277 286 56 187 243 39 324 319 331 293 351 328 292 298 306 290 288 282 286 300 155 159 16 16 2 349 343 332 327 321 317 317 314 311 310 310
76 136 349 3 29 117 67 62 336 25 71 191 21 82 19 86 115 6 8 29 26 20 27 43 85 56 109 215 5 3 341 292 239 55 186 265 248 227 256 338 340 353 94 8 297 270 213 59 323 301 290 277 282 305 75 86 11 4 316 348 2 320 310 271 261 308 305 285 299 293 284 299 158 256 342 359 3 339 330 328 323 318 317 316 312 313 314 311
104 159 8 16 26 163 83 92 133 62 91 151 60 33 352 78 96 39 23 359 4 88 64 25 339 37 22 134 91 321 327 18 74 56 133 167 248 255 271 311 330 47 81 191 266 317 304 325 1 336 328 329 330 336 339 342 358 338 291 324 345 319 312 289 267 3 290 276 320 312 289 300 321 327 333 343 349 337 325 322 320 318 318 316 314 314 311 308
68 88 322 17 39 67 95 144 140 127 152 109 74 34 14 52 61 74 117 25 7 150 109 5 357 65 32 36 45 348 1 41 288 331 53 165 264 300 305 291 265 259 228 209 181 62 279 241 84 65 341 323 322 322 322 325 332 320 300 316 330 329 325 314 307 325 297 311 337 298 281 297 316 323 329 337 342 332 321 318 317 315 315 313 312 311 308 309
75 54 316 358 29 53 69 91 99 110 148 124 78 25 57 70 325 280 133 88 25 126 68 13 355 55 40 38 33 347 344 13 308 27 50 269 264 275 297 305 263 255 238 211 131 89 94 259 181 162 218 270 282 288 298 310 311 307 311 318 326 345 4 5 346 303 301 312 302 275 287 304 313 320 330 340 337 326 320 321 321 318 316 311 308 307 308 309
101 79 61 357 8 37 35 18 49 85 141 130 102 57 79 61 330 329 103 103 58 80 67 39 37 47 30 34 44 321 305 332 348 56 183 255 259 275 296 308 348 322 309 175 115 90 72 329 257 213 236 254 268 281 290 297 291 294 308 315 319 348 19 26 342 295 308 317 304 305 312 311 311 321 335 338 329 323 321 323 322 319 315 308 306 306 307 310
75 126 159 109 80 63 39 27 63 76 68 82 102 107 77 49 31 30 312 347 21 43 73 42 24 27 341 336 85 285 310 337 333 287 255 273 287 325 328 316 337 342 11 56 18 98 113 268 256 253 278 276 276 281 286 288 285 295 308 313 330 360 10 4 299 294 311 308 301 310 314 309 310 325 338 333 325 321 319 319 317 313 310 307 306 309 311 315
85 110 3 23 88 142 154 78 93 80 56 57 76 70 93 95 80 146 287 6 14 1 42 51 345 334 303 252 128 137 297 337 314 284 248 272 296 344 343 307 312 355 49 57 354 109 131 270 267 274 294 290 288 283 279 294 307 310 319 10 66 360 322 297 285 291 295 288 293 304 307 306 312 327 329 325 321 317 314 313 312 311 311 311 312 315 318 321
139 139 140 63 69 95 70 42 78 79 44 39 71 59 95 120 131 177 25 45 32 348 24 51 312 307 288 156 108 119 227 205 236 255 204 187 304 253 196 240 268 334 18 45 320 2 47 305 282 324 314 295 295 302 311 321 316 310 324 37 50 343 323 316 305 303 304 300 301 306 304 303 313 323 318 318 318 315 314 314 314 314 314 315 318 321 322 323
102 122 135 111 65 360 16 29 63 84 38 12 74 113 78 123 171 148 71 36 84 78 28 13 293 299 341 77 85 261 244 206 217 236 202 186 251 222 217 225 191 307 351 12 321 356 31 325 310 11 342 303 319 337 330 321 313 310 341 2 349 344 338 322 313 319 320 314 312 313 310 310 321 322 317 317 318 315 314 314 315 317 320 323 324 323 325 327
97 91 107 104 80 357 17 27 38 76 70 335 86 151 92 122 194 120 89 37 52 82 178 224 244 263 15 7 326 254 239 208 211 229 201 182 192 139 232 211 144 151 226 112 326 354 76 343 321 1 330 310 327 336 320 313 320 330 333 285 324 334 329 317 319 324 320 316 315 316 316 318 322 322 320 319 319 316 314 317 318 321 326 329 327 326 329 329